User: anonymous   Login
Location: Little Chesterford
(52.0500°N, 0.1833°E)
Time: 22:15:29
(UTC+00:00)
Language:

Okean 1-7 - Orbit

View from above orbital plane
View from above orbital plane
View from above satellite
View from above satellite

Ground track
Ground track

The orbit data is extracted from the following two-line orbital elements,

1 23317U 94066A   24055.49910189  .00002888  00000-0  28722-3 0  9998
2 23317  82.5400 337.6989 0016949 222.2251 137.7664 14.91245678589314
Epoch (UTC): 24 February 2024 11:58:42
Eccentricity: 0.0016949
inclination: 82.5400°
perigee height: 582 km
apogee height: 606 km
right ascension of ascending node: 337.6989°
argument of perigee: 222.2251°
revolutions per day: 14.91245678
mean anomaly at epoch: 137.7664°
orbit number at epoch: 58931

The dashed part of the orbit path shows where the satellite is in the earth's shadow,  

DLR